Time,TemperatureF,DewpointF,PressureIn,WindDirection,WindDirectionDegrees,WindSpeedMPH,WindSpeedGustMPH,Humidity,HourlyPrecipIn,Conditions,Clouds,dailyrainin,SoftwareType,DateUTC
2013-03-01 00:01:00,34.0,34.0,30.35,NW,318,0.0,0.0,100,0.00,,,0.19,,2013-03-01 08:01:00,
2013-03-01 00:11:00,34.0,34.0,30.35,NW,318,0.0,0.0,100,0.00,,,0.19,,2013-03-01 08:11:00,
2013-03-01 00:21:00,34.0,34.0,30.36,NW,312,0.0,1.0,100,0.01,,,0.20,,2013-03-01 08:21:00,
2013-03-01 00:31:00,34.0,34.0,30.36,NNW,341,0.0,2.0,100,0.01,,,0.20,,2013-03-01 08:31:00,
2013-03-01 00:42:00,34.0,34.0,30.36,NNW,341,0.0,2.0,100,0.01,,,0.20,,2013-03-01 08:42:00,
2013-03-01 00:53:00,34.0,34.0,30.37,West,278,0.0,1.0,100,0.01,,,0.20,,2013-03-01 08:53:00,
2013-03-01 01:01:00,34.0,34.0,30.37,WSW,255,1.0,2.0,100,0.01,,,0.21,,2013-03-01 09:01:00,
2013-03-01 01:11:00,34.0,34.0,30.37,WSW,255,1.0,2.0,100,0.01,,,0.21,,2013-03-01 09:11:00,
2013-03-01 01:21:00,34.0,34.0,30.37,NW,317,0.0,1.0,100,0.01,,,0.21,,2013-03-01 09:21:00,
2013-03-01 01:31:00,34.0,34.0,30.36,WSW,243,0.0,3.0,100,0.01,,,0.21,,2013-03-01 09:31:00,
2013-03-01 01:41:00,34.0,34.0,30.36,WSW,243,0.0,3.0,100,0.01,,,0.21,,2013-03-01 09:41:00,
2013-03-01 01:52:00,34.0,34.0,30.36,WSW,248,0.0,1.0,100,0.01,,,0.21,,2013-03-01 09:52:00,
2013-03-01 02:01:00,34.0,34.0,30.36,West,260,1.0,2.0,100,0.00,,,0.21,,2013-03-01 10:01:00,
2013-03-01 02:11:00,34.0,34.0,30.36,West,260,1.0,2.0,100,0.00,,,0.21,,2013-03-01 10:11:00,
2013-03-01 02:21:00,34.0,34.0,30.35,West,279,0.0,2.0,100,0.00,,,0.21,,2013-03-01 10:21:00,
2013-03-01 02:31:00,34.0,34.0,30.34,NW,311,0.0,1.0,100,0.00,,,0.21,,2013-03-01 10:31:00,
2013-03-01 02:41:00,34.0,34.0,30.34,NW,311,0.0,1.0,100,0.00,,,0.21,,2013-03-01 10:41:00,
2013-03-01 02:52:00,34.0,34.0,30.32,NNW,334,0.0,1.0,100,0.00,,,0.21,,2013-03-01 10:52:00,
2013-03-01 03:01:00,34.0,34.0,30.32,NNW,334,0.0,1.0,100,0.00,,,0.21,,2013-03-01 11:01:00,
2013-03-01 03:11:00,34.0,34.0,30.32,NNW,334,0.0,1.0,100,0.00,,,0.21,,2013-03-01 11:11:00,
2013-03-01 03:22:00,35.0,35.0,30.32,NW,324,0.0,1.0,100,0.00,,,0.21,,2013-03-01 11:22:00,
2013-03-01 03:31:00,35.0,35.0,30.32,NW,324,0.0,1.0,100,0.00,,,0.21,,2013-03-01 11:31:00,
2013-03-01 03:42:00,35.0,35.0,30.32,NW,324,0.0,1.0,100,0.00,,,0.21,,2013-03-01 11:42:00,
2013-03-01 03:52:00,35.0,35.0,30.33,NNW,343,0.0,3.0,100,0.00,,,0.21,,2013-03-01 11:52:00,
2013-03-01 04:01:00,35.0,35.0,30.33,NNW,343,0.0,3.0,100,0.00,,,0.21,,2013-03-01 12:01:00,
2013-03-01 04:11:00,35.0,35.0,30.33,NNW,343,0.0,3.0,100,0.00,,,0.21,,2013-03-01 12:11:00,
2013-03-01 04:21:00,35.0,35.0,30.33,NNW,343,0.0,3.0,100,0.00,,,0.21,,2013-03-01 12:21:00,
2013-03-01 04:32:00,34.0,34.0,30.33,North,359,0.0,0.0,100,0.00,,,0.21,,2013-03-01 12:32:00,
2013-03-01 04:42:00,34.0,34.0,30.33,North,359,0.0,0.0,100,0.00,,,0.21,,2013-03-01 12:42:00,
2013-03-01 04:52:00,34.0,34.0,30.33,WNW,298,0.0,2.0,100,0.00,,,0.21,,2013-03-01 12:52:00,
2013-03-01 05:01:00,34.0,34.0,30.33,WNW,285,1.0,2.0,100,0.00,,,0.21,,2013-03-01 13:01:00,
2013-03-01 05:11:00,34.0,34.0,30.33,WNW,285,1.0,2.0,100,0.00,,,0.21,,2013-03-01 13:11:00,
2013-03-01 05:21:00,36.0,36.0,30.32,SW,217,4.0,8.0,100,0.00,,,0.21,,2013-03-01 13:21:00,
2013-03-01 05:32:00,35.0,35.0,30.32,NW,305,0.0,1.0,100,0.00,,,0.21,,2013-03-01 13:32:00,
2013-03-01 05:41:00,35.0,35.0,30.32,NW,305,0.0,1.0,100,0.00,,,0.21,,2013-03-01 13:41:00,
2013-03-01 05:52:00,35.0,35.0,30.31,NNE,20,1.0,3.0,100,0.00,,,0.21,,2013-03-01 13:52:00,
2013-03-01 06:01:00,35.0,35.0,30.31,NNW,341,0.0,1.0,100,0.00,,,0.21,,2013-03-01 14:01:00,
2013-03-01 06:11:00,35.0,35.0,30.31,NNW,341,0.0,1.0,100,0.00,,,0.21,,2013-03-01 14:11:00,
2013-03-01 06:21:00,39.0,39.0,30.31,SW,218,7.0,9.0,100,0.00,,,0.21,,2013-03-01 14:21:00,
2013-03-01 06:31:00,40.0,40.0,30.31,SW,217,9.0,15.0,100,0.00,,,0.21,,2013-03-01 14:31:00,
2013-03-01 06:41:00,40.0,40.0,30.31,SW,217,9.0,15.0,100,0.00,,,0.21,,2013-03-01 14:41:00,
2013-03-01 06:52:00,41.0,41.0,30.31,SW,229,10.0,13.0,100,0.01,,,0.22,,2013-03-01 14:52:00,
2013-03-01 07:01:00,40.0,40.0,30.31,SSW,208,8.0,11.0,100,0.01,,,0.22,,2013-03-01 15:01:00,
2013-03-01 07:11:00,40.0,40.0,30.31,SW,230,8.0,11.0,100,0.01,,,0.22,,2013-03-01 15:11:00,
2013-03-01 07:21:00,40.0,40.0,30.31,SW,230,8.0,11.0,100,0.01,,,0.22,,2013-03-01 15:21:00,
2013-03-01 07:31:00,40.0,40.0,30.32,SW,228,11.0,15.0,100,0.01,,,0.22,,2013-03-01 15:31:00,
2013-03-01 07:42:00,40.0,40.0,30.32,SW,228,11.0,15.0,100,0.01,,,0.22,,2013-03-01 15:42:00,
2013-03-01 07:52:00,40.0,40.0,30.32,SW,228,10.0,14.0,100,0.00,,,0.22,,2013-03-01 15:52:00,
2013-03-01 08:01:00,41.0,41.0,30.32,SW,217,9.0,13.0,100,0.00,,,0.22,,2013-03-01 16:01:00,
2013-03-01 08:11:00,41.0,41.0,30.32,SW,217,9.0,13.0,100,0.00,,,0.22,,2013-03-01 16:11:00,
2013-03-01 08:21:00,40.0,40.0,30.32,SSW,208,7.0,11.0,100,0.00,,,0.22,,2013-03-01 16:21:00,
2013-03-01 08:31:00,40.0,40.0,30.32,SW,222,7.0,9.0,100,0.00,,,0.22,,2013-03-01 16:31:00,
2013-03-01 08:41:00,40.0,40.0,30.32,SW,222,7.0,9.0,100,0.00,,,0.22,,2013-03-01 16:41:00,
2013-03-01 08:52:00,41.0,41.0,30.32,SW,227,5.0,9.0,100,0.00,,,0.22,,2013-03-01 16:52:00,
2013-03-01 09:01:00,42.0,42.0,30.32,WSW,239,6.0,11.0,100,0.00,,,0.22,,2013-03-01 17:01:00,
2013-03-01 09:11:00,42.0,42.0,30.32,WSW,239,6.0,11.0,100,0.00,,,0.22,,2013-03-01 17:11:00,
2013-03-01 09:21:00,42.0,42.0,30.32,WNW,289,9.0,12.0,100,0.00,,,0.22,,2013-03-01 17:21:00,
2013-03-01 09:31:00,42.0,42.0,30.33,SW,227,9.0,13.0,100,0.00,,,0.22,,2013-03-01 17:31:00,
2013-03-01 09:41:00,42.0,42.0,30.33,SW,227,9.0,13.0,100,0.00,,,0.22,,2013-03-01 17:41:00,
2013-03-01 09:52:00,42.0,42.0,30.32,WSW,242,10.0,17.0,100,0.00,,,0.22,,2013-03-01 17:52:00,
2013-03-01 10:01:00,42.0,42.0,30.32,SW,222,10.0,14.0,100,0.00,,,0.22,,2013-03-01 18:01:00,
2013-03-01 10:11:00,42.0,42.0,30.32,SW,222,10.0,14.0,100,0.00,,,0.22,,2013-03-01 18:11:00,
2013-03-01 10:21:00,42.0,42.0,30.32,SW,220,6.0,12.0,100,0.00,,,0.22,,2013-03-01 18:21:00,
2013-03-01 10:31:00,42.0,41.0,30.33,SW,217,7.0,11.0,98,0.00,,,0.22,,2013-03-01 18:31:00,
2013-03-01 10:41:00,42.0,41.0,30.33,SW,217,7.0,11.0,98,0.00,,,0.22,,2013-03-01 18:41:00,
2013-03-01 10:52:00,43.0,43.0,30.32,SSW,208,9.0,13.0,99,0.00,,,0.22,,2013-03-01 18:52:00,
2013-03-01 11:01:00,43.0,43.0,30.33,WSW,239,7.0,13.0,99,0.00,,,0.22,,2013-03-01 19:01:00,
2013-03-01 11:11:00,43.0,43.0,30.33,WSW,239,7.0,13.0,99,0.00,,,0.22,,2013-03-01 19:11:00,
2013-03-01 11:21:00,43.0,42.0,30.32,SW,227,7.0,12.0,98,0.00,,,0.22,,2013-03-01 19:21:00,
2013-03-01 11:31:00,44.0,43.0,30.31,SSW,208,8.0,11.0,96,0.00,,,0.22,,2013-03-01 19:31:00,
2013-03-01 11:41:00,44.0,43.0,30.31,SSW,208,8.0,11.0,96,0.00,,,0.22,,2013-03-01 19:41:00,
2013-03-01 11:52:00,44.0,43.0,30.32,WSW,241,6.0,10.0,97,0.00,,,0.22,,2013-03-01 19:52:00,
2013-03-01 12:01:00,44.0,42.0,30.32,SW,225,9.0,17.0,94,0.00,,,0.22,,2013-03-01 20:01:00,
2013-03-01 12:11:00,44.0,42.0,30.32,SW,225,9.0,17.0,94,0.00,,,0.22,,2013-03-01 20:11:00,
2013-03-01 12:21:00,45.0,43.0,30.31,SW,214,7.0,10.0,94,0.00,,,0.22,,2013-03-01 20:21:00,
2013-03-01 12:31:00,44.0,43.0,30.31,SW,227,7.0,10.0,95,0.00,,,0.22,,2013-03-01 20:31:00,
2013-03-01 12:41:00,44.0,43.0,30.31,SW,227,7.0,10.0,95,0.00,,,0.22,,2013-03-01 20:41:00,
2013-03-01 12:52:00,44.0,42.0,30.31,SW,221,7.0,11.0,94,0.00,,,0.22,,2013-03-01 20:52:00,
2013-03-01 13:01:00,44.0,43.0,30.31,SSW,211,9.0,12.0,96,0.00,,,0.22,,2013-03-01 21:01:00,
2013-03-01 13:11:00,44.0,43.0,30.30,SW,222,10.0,12.0,96,0.00,,,0.22,,2013-03-01 21:11:00,
2013-03-01 13:21:00,44.0,43.0,30.30,SW,222,10.0,12.0,96,0.00,,,0.22,,2013-03-01 21:21:00,
2013-03-01 13:31:00,44.0,42.0,30.31,SW,220,5.0,9.0,94,0.00,,,0.22,,2013-03-01 21:31:00,
2013-03-01 13:41:00,44.0,42.0,30.31,SW,220,5.0,9.0,94,0.00,,,0.22,,2013-03-01 21:41:00,
2013-03-01 13:52:00,44.0,43.0,30.30,SW,219,5.0,8.0,96,0.00,,,0.22,,2013-03-01 21:52:00,
2013-03-01 14:01:00,45.0,44.0,30.30,SW,227,4.0,6.0,96,0.00,,,0.22,,2013-03-01 22:01:00,
2013-03-01 14:11:00,45.0,44.0,30.30,SW,227,4.0,6.0,96,0.00,,,0.22,,2013-03-01 22:11:00,
2013-03-01 14:21:00,45.0,43.0,30.30,SW,230,3.0,7.0,93,0.00,,,0.21,,2013-03-01 22:21:00,
2013-03-01 14:31:00,45.0,43.0,30.30,SW,235,1.0,2.0,93,0.00,,,0.21,,2013-03-01 22:31:00,
2013-03-01 14:41:00,45.0,43.0,30.30,SW,235,1.0,2.0,93,0.00,,,0.21,,2013-03-01 22:41:00,
2013-03-01 14:52:00,45.0,44.0,30.30,SW,220,5.0,9.0,95,0.00,,,0.21,,2013-03-01 22:52:00,
2013-03-01 15:01:00,45.0,44.0,30.30,SW,217,7.0,10.0,95,0.00,,,0.21,,2013-03-01 23:01:00,
2013-03-01 15:11:00,45.0,44.0,30.30,SW,217,7.0,10.0,95,0.00,,,0.21,,2013-03-01 23:11:00,
2013-03-01 15:21:00,44.0,42.0,30.29,SW,222,5.0,10.0,94,0.00,,,0.18,,2013-03-01 23:21:00,
2013-03-01 15:31:00,45.0,44.0,30.29,SW,229,5.0,6.0,95,0.00,,,0.18,,2013-03-01 23:31:00,
2013-03-01 15:41:00,45.0,44.0,30.29,SW,229,5.0,6.0,95,0.00,,,0.18,,2013-03-01 23:41:00,
2013-03-01 15:52:00,45.0,44.0,30.29,SW,234,4.0,6.0,95,0.00,,,0.18,,2013-03-01 23:52:00,
2013-03-01 16:01:00,45.0,44.0,30.30,West,263,2.0,4.0,95,0.00,,,0.18,,2013-03-02 00:01:00,
2013-03-01 16:11:00,45.0,44.0,30.30,West,263,2.0,4.0,95,0.00,,,0.18,,2013-03-02 00:11:00,
2013-03-01 16:21:00,46.0,45.0,30.29,West,272,1.0,4.0,95,0.00,,,0.12,,2013-03-02 00:21:00,
2013-03-01 16:31:00,46.0,45.0,30.29,West,270,0.0,2.0,95,0.00,,,0.12,,2013-03-02 00:31:00,
2013-03-01 16:41:00,46.0,45.0,30.29,West,270,0.0,2.0,95,0.00,,,0.12,,2013-03-02 00:41:00,
2013-03-01 16:52:00,45.0,43.0,30.29,WSW,239,1.0,3.0,93,0.00,,,0.12,,2013-03-02 00:52:00,
2013-03-01 17:01:00,45.0,44.0,30.29,West,273,0.0,1.0,97,0.00,,,0.12,,2013-03-02 01:01:00,
2013-03-01 17:11:00,45.0,44.0,30.29,West,273,0.0,1.0,97,0.00,,,0.12,,2013-03-02 01:11:00,
2013-03-01 17:21:00,46.0,45.0,30.29,West,274,0.0,1.0,96,0.00,,,0.08,,2013-03-02 01:21:00,
2013-03-01 17:31:00,45.0,44.0,30.28,West,274,0.0,1.0,97,0.00,,,0.08,,2013-03-02 01:31:00,
2013-03-01 17:41:00,45.0,44.0,30.28,West,274,0.0,1.0,97,0.00,,,0.08,,2013-03-02 01:41:00,
2013-03-01 17:52:00,45.0,44.0,30.28,West,274,0.0,1.0,98,0.00,,,0.08,,2013-03-02 01:52:00,
2013-03-01 18:01:00,44.0,44.0,30.28,West,274,0.0,2.0,99,0.00,,,0.08,,2013-03-02 02:01:00,
2013-03-01 18:11:00,44.0,44.0,30.28,West,274,0.0,2.0,99,0.00,,,0.08,,2013-03-02 02:11:00,
2013-03-01 18:21:00,43.0,42.0,30.28,West,274,0.0,1.0,97,0.00,,,0.07,,2013-03-02 02:21:00,
2013-03-01 18:31:00,43.0,43.0,30.28,SW,233,2.0,3.0,99,0.00,,,0.07,,2013-03-02 02:31:00,
2013-03-01 18:41:00,43.0,43.0,30.28,SW,233,2.0,3.0,99,0.00,,,0.07,,2013-03-02 02:41:00,
2013-03-01 18:52:00,43.0,42.0,30.28,West,267,0.0,1.0,97,0.00,,,0.07,,2013-03-02 02:52:00,
2013-03-01 19:01:00,43.0,42.0,30.27,WNW,283,0.0,1.0,98,0.00,,,0.07,,2013-03-02 03:01:00,
2013-03-01 19:11:00,43.0,42.0,30.27,WNW,283,0.0,1.0,98,0.00,,,0.07,,2013-03-02 03:11:00,
2013-03-01 19:21:00,43.0,42.0,30.27,WNW,283,0.0,1.0,98,0.00,,,0.07,,2013-03-02 03:21:00,
2013-03-01 19:32:00,42.0,41.0,30.27,WNW,282,0.0,2.0,98,0.00,,,0.06,,2013-03-02 03:32:00,
2013-03-01 19:41:00,42.0,41.0,30.27,WNW,282,0.0,2.0,98,0.00,,,0.06,,2013-03-02 03:41:00,
2013-03-01 19:52:00,42.0,41.0,30.28,West,267,0.0,2.0,97,0.00,,,0.06,,2013-03-02 03:52:00,
2013-03-01 20:01:00,41.0,41.0,30.28,West,269,0.0,2.0,99,0.00,,,0.06,,2013-03-02 04:01:00,
2013-03-01 20:11:00,41.0,41.0,30.28,West,269,0.0,2.0,99,0.00,,,0.06,,2013-03-02 04:11:00,
2013-03-01 20:21:00,41.0,40.0,30.27,WNW,297,0.0,2.0,98,0.00,,,0.05,,2013-03-02 04:21:00,
2013-03-01 20:31:00,40.0,40.0,30.27,West,265,0.0,2.0,99,0.00,,,0.05,,2013-03-02 04:31:00,
2013-03-01 20:41:00,40.0,40.0,30.27,West,265,0.0,2.0,99,0.00,,,0.05,,2013-03-02 04:41:00,
2013-03-01 20:52:00,42.0,42.0,30.27,West,272,0.0,2.0,100,0.00,,,0.05,,2013-03-02 04:52:00,
2013-03-01 21:01:00,42.0,42.0,30.27,WNW,293,1.0,2.0,100,0.00,,,0.05,,2013-03-02 05:01:00,
2013-03-01 21:12:00,42.0,42.0,30.27,WNW,293,1.0,2.0,100,0.00,,,0.05,,2013-03-02 05:12:00,
2013-03-01 21:22:00,42.0,42.0,30.27,WNW,298,0.0,1.0,99,0.00,,,0.04,,2013-03-02 05:22:00,
2013-03-01 21:31:00,41.0,41.0,30.27,WNW,296,0.0,1.0,99,0.00,,,0.04,,2013-03-02 05:31:00,
2013-03-01 21:41:00,41.0,41.0,30.27,WNW,296,0.0,1.0,99,0.00,,,0.04,,2013-03-02 05:41:00,
2013-03-01 21:52:00,42.0,42.0,30.27,West,277,0.0,2.0,100,0.00,,,0.04,,2013-03-02 05:52:00,
2013-03-01 22:01:00,41.0,40.0,30.27,WNW,299,0.0,1.0,97,0.00,,,0.04,,2013-03-02 06:01:00,
2013-03-01 22:11:00,41.0,40.0,30.27,WNW,299,0.0,1.0,97,0.00,,,0.04,,2013-03-02 06:11:00,
2013-03-01 22:21:00,39.0,39.0,30.27,NNW,343,0.0,2.0,99,0.00,,,0.03,,2013-03-02 06:21:00,
2013-03-01 22:31:00,39.0,39.0,30.27,NNW,343,0.0,2.0,99,0.00,,,0.03,,2013-03-02 06:31:00,
2013-03-01 22:41:00,39.0,39.0,30.27,NNW,343,0.0,2.0,99,0.00,,,0.03,,2013-03-02 06:41:00,
2013-03-01 22:52:00,40.0,40.0,30.26,NE,35,1.0,2.0,100,0.00,,,0.03,,2013-03-02 06:52:00,
2013-03-01 23:01:00,39.0,39.0,30.25,NE,35,0.0,1.0,100,0.00,,,0.03,,2013-03-02 07:01:00,
2013-03-01 23:11:00,39.0,39.0,30.25,NE,35,0.0,1.0,100,0.00,,,0.03,,2013-03-02 07:11:00,
2013-03-01 23:21:00,38.0,38.0,30.25,North,4,0.0,2.0,100,0.00,,,0.03,,2013-03-02 07:21:00,
2013-03-01 23:32:00,38.0,38.0,30.25,North,1,0.0,2.0,100,0.00,,,0.03,,2013-03-02 07:32:00,
2013-03-01 23:41:00,38.0,38.0,30.25,North,1,0.0,2.0,100,0.00,,,0.03,,2013-03-02 07:41:00,
2013-03-01 23:52:00,38.0,38.0,30.25,North,359,0.0,2.0,100,0.00,,,0.03,,2013-03-02 07:52:00,